KC5TIL Weather Reports


Display with metric or nautical units.
time (UTC)temp
F
wind
direction
speed
MPH
gust
MPH
rain 1hr
in
rain 24hr
in
rain mn
in
humidity
%
barometer
mb
20260506013945 75 354 4.0 7.0 0.00 0.00 0.00 67 1007.0
20260506013444 75 307 2.0 8.0 0.00 0.00 0.00 67 1007.0
20260506012939 76 351 4.0 8.0 0.00 0.00 0.00 67 1007.1
20260506012436 76 332 2.0 7.0 0.00 0.00 0.00 66 1006.8
20260506011933 77 312 4.0 8.0 0.00 0.00 0.00 66 1006.6
20260506011431 77 54 3.0 7.0 0.00 0.00 0.00 65 1006.6
20260506010927 78 350 4.0 9.0 0.00 0.00 0.00 64 1006.7
20260506010426 78 355 2.0 5.0 0.00 0.00 0.00 63 1006.7
20260506005922 78 62 3.0 6.0 0.00 0.00 0.00 62 1006.5
20260506005420 79 23 4.0 5.0 0.00 0.00 0.00 62 1006.3
20260506004915 79 336 5.0 9.0 0.00 0.00 0.00 62 1006.3
20260506004413 79 2 1.0 5.0 0.00 0.00 0.00 62 1006.2
20260506003909 79 83 1.0 3.0 0.00 0.00 0.00 62 1006.1
20260506003405 79 313 2.0 7.0 0.00 0.00 0.00 61 1005.9
20260506002902 80 335 5.0 6.0 0.00 0.00 0.00 61 1006.0
20260506002358 80 9 3.0 7.0 0.00 0.00 0.00 61 1006.1
20260506001854 80 322 3.0 7.0 0.00 0.00 0.00 60 1006.0
20260506001351 81 25 4.0 10.0 0.00 0.00 0.00 59 1005.9
20260506000848 81 274 3.0 6.0 0.00 0.00 0.00 59 1006.0
20260506000346 82 311 2.0 7.0 0.00 0.00 0.00 58 1005.9
20260505235842 82 252 3.0 3.0 0.00 0.00 0.00 58 1005.9
20260505235340 82 252 3.0 6.0 0.00 0.00 0.00 57 1005.9
20260505234836 82 357 3.0 6.0 0.00 0.00 0.00 57 1005.6
20260505234335 83 24 7.0 9.0 0.00 0.00 0.00 57 1005.6
20260505233831 83 11 3.0 9.0 0.00 0.00 0.00 57 1005.5
20260505233329 84 7 3.0 9.0 0.00 0.00 0.00 57 1005.3
20260505232826 85 295 6.0 11.0 0.00 0.00 0.00 56 1005.4
20260505232324 87 13 3.0 7.0 0.00 0.00 0.00 52 1005.2
20260505231820 87 277 5.0 6.0 0.00 0.00 0.00 50 1005.3
20260505231318 87 273 3.0 5.0 0.00 0.00 0.00 49 1005.0
20260505230816 88 123 1.0 2.0 0.00 0.00 0.00 50 1005.0
20260505230313 88 273 3.0 6.0 0.00 0.00 0.00 49 1004.8
20260505225809 88 353 5.0 7.0 0.00 0.00 0.00 48 1004.8
20260505225307 88 264 2.0 6.0 0.00 0.00 0.00 47 1004.7
20260505224802 89 18 3.0 8.0 0.00 0.00 0.00 47 1004.6
20260505224300 92 301 4.0 7.0 0.00 0.00 0.00 46 1004.3
20260505223757 93 126 0.0 3.0 0.00 0.00 0.00 48 1004.4
20260505223254 94 126 0.0 1.0 0.00 0.00 0.00 45 1004.4
20260505222749 94 145 0.0 3.0 0.00 0.00 0.00 43 1004.5
20260505222246 95 168 1.0 2.0 0.00 0.00 0.00 43 1004.3
20260505221743 95 179 1.0 2.0 0.00 0.00 0.00 44 1004.3
20260505221240 95 207 1.0 5.0 0.00 0.00 0.00 44 1004.3
20260505220736 94 177 1.0 2.0 0.00 0.00 0.00 44 1004.1
20260505220234 93 188 1.0 3.0 0.00 0.00 0.00 45 1004.4
20260505215732 94 166 0.0 1.0 0.00 0.00 0.00 44 1004.1
20260505215229 93 149 1.0 3.0 0.00 0.00 0.00 46 1004.1
20260505214727 93 335 1.0 7.0 0.00 0.00 0.00 45 1004.2
20260505214224 93 158 1.0 2.0 0.00 0.00 0.00 44 1004.2
20260505213721 93 148 1.0 7.0 0.00 0.00 0.00 45 1004.4
20260505213219 93 144 1.0 3.0 0.00 0.00 0.00 45 1004.4
20260505212714 93 133 0.0 1.0 0.00 0.00 0.00 47 1004.3
20260505212212 92 92 1.0 1.0 0.00 0.00 0.00 47 1004.4
20260505211708 92 112 1.0 2.0 0.00 0.00 0.00 46 1004.5
20260505211206 92 134 1.0 6.0 0.00 0.00 0.00 45 1004.6
20260505210702 92 192 1.0 2.0 0.00 0.00 0.00 45 1004.7
20260505210159 93 154 1.0 2.0 0.00 0.00 0.00 47 1004.7
20260505205657 92 143 1.0 1.0 0.00 0.00 0.00 47 1004.9
20260505205155 93 111 1.0 5.0 0.00 0.00 0.00 48 1005.0
20260505204651 93 251 3.0 6.0 0.00 0.00 0.00 48 1005.3
20260505204149 92 128 1.0 1.0 0.00 0.00 0.00 52 1005.0
20260505203646 93 224 2.0 3.0 0.00 0.00 0.00 50 1004.9
20260505203142 92 158 1.0 2.0 0.00 0.00 0.00 51 1005.0
20260505202638 91 180 1.0 3.0 0.00 0.00 0.00 51 1005.2
20260505202134 91 184 2.0 3.0 0.00 0.00 0.00 52 1005.4
20260505201625 90 160 1.0 3.0 0.00 0.00 0.00 53 1005.5
20260505201118 90 189 2.0 3.0 0.00 0.00 0.00 54 1005.5
20260505200615 90 116 1.0 2.0 0.00 0.00 0.00 54 1005.4
20260505200112 90 147 2.0 2.0 0.00 0.00 0.00 55 1005.2
20260505195608 90 203 2.0 3.0 0.00 0.00 0.00 54 1005.6
20260505195106 91 225 1.0 2.0 0.00 0.00 0.00 53 1005.4
20260505194602 91 186 2.0 3.0 0.00 0.00 0.00 54 1005.5
20260505194052 90 122 1.0 6.0 0.00 0.00 0.00 54 1005.6
20260505193550 90 162 3.0 6.0 0.00 0.00 0.00 53 1005.5
20260505193046 89 215 2.0 5.0 0.00 0.00 0.00 55 1005.6
20260505192545 89 260 3.0 5.0 0.00 0.00 0.00 56 1005.7
20260505192042 89 239 3.0 5.0 0.00 0.00 0.00 55 1005.4
20260505191540 89 217 2.0 3.0 0.00 0.00 0.00 56 1005.5
20260505191038 89 165 1.0 3.0 0.00 0.00 0.00 57 1005.6
20260505190532 89 201 2.0 3.0 0.00 0.00 0.00 57 1005.5
20260505190029 89 172 1.0 5.0 0.00 0.00 0.00 57 1005.6
20260505185526 89 111 0.0 6.0 0.00 0.00 0.00 59 1005.7
20260505185022 88 129 2.0 6.0 0.00 0.00 0.00 58 1005.9
20260505184519 88 191 3.0 5.0 0.00 0.00 0.00 58 1005.6
20260505184016 89 132 3.0 3.0 0.00 0.00 0.00 59 1005.9
20260505183513 87 259 3.0 6.0 0.00 0.00 0.00 61 1006.0
20260505183010 87 192 2.0 6.0 0.00 0.00 0.00 62 1005.8
20260505182506 87 283 3.0 5.0 0.00 0.00 0.00 61 1005.9
20260505182003 87 220 3.0 7.0 0.00 0.00 0.00 60 1005.8
20260505181500 87 136 1.0 5.0 0.00 0.00 0.00 62 1005.9
20260505180956 86 155 2.0 3.0 0.00 0.00 0.00 62 1006.0
20260505180452 86 170 2.0 6.0 0.00 0.00 0.00 63 1006.1
20260505175950 86 115 3.0 5.0 0.00 0.00 0.00 62 1006.1
20260505175445 86 185 3.0 5.0 0.00 0.00 0.00 63 1006.1
20260505174942 85 181 2.0 3.0 0.00 0.00 0.00 63 1006.1
20260505174440 85 228 3.0 7.0 0.00 0.00 0.00 64 1006.3
20260505173936 86 113 3.0 5.0 0.00 0.00 0.00 63 1006.2
20260505173432 86 165 2.0 5.0 0.00 0.00 0.00 63 1006.1
20260505172929 85 216 2.0 5.0 0.00 0.00 0.00 64 1006.2
20260505172428 84 189 2.0 5.0 0.00 0.00 0.00 66 1006.2
20260505171926 83 152 2.0 6.0 0.00 0.00 0.00 67 1006.2
20260505171424 83 180 1.0 3.0 0.00 0.00 0.00 67 1006.3
20260505170920 83 219 2.0 5.0 0.00 0.00 0.00 67 1006.3
20260505170417 84 88 1.0 5.0 0.00 0.00 0.00 66 1006.3
20260505165912 84 158 2.0 5.0 0.00 0.00 0.00 65 1006.3
20260505165409 84 213 3.0 5.0 0.00 0.00 0.00 65 1006.5
20260505164904 84 126 1.0 3.0 0.00 0.00 0.00 66 1006.4
20260505164401 84 198 2.0 3.0 0.00 0.00 0.00 66 1006.4
20260505163859 83 201 2.0 3.0 0.00 0.00 0.00 67 1006.4
20260505163358 83 188 3.0 5.0 0.00 0.00 0.00 68 1006.2
20260505162856 83 196 2.0 7.0 0.00 0.00 0.00 68 1005.8
20260505162352 83 208 5.0 8.0 0.00 0.00 0.00 67 1005.8
20260505161849 84 170 2.0 3.0 0.00 0.00 0.00 67 1005.9
20260505161346 82 165 2.0 10.0 0.00 0.00 0.00 69 1005.8
20260505160843 82 246 3.0 7.0 0.00 0.00 0.00 70 1006.0
20260505160341 82 168 3.0 5.0 0.00 0.00 0.00 71 1006.0
20260505140358 75 154 3.0 8.0 0.00 0.00 0.00 80 1006.1
20260505124812 71 208 1.0 2.0 0.00 0.00 0.00 87 1006.0
20260505124309 71 144 2.0 3.0 0.00 0.00 0.00 88 1005.9
20260505123804 71 161 0.0 2.0 0.00 0.00 0.00 88 1006.0
20260505123301 71 175 1.0 2.0 0.00 0.00 0.00 89 1005.6
20260505122757 70 161 0.0 2.0 0.00 0.00 0.00 89 1005.8
20260505122255 70 156 1.0 5.0 0.00 0.00 0.00 89 1005.8
20260505121751 70 111 1.0 6.0 0.00 0.00 0.00 89 1005.8
20260505121248 70 179 1.0 2.0 0.00 0.00 0.00 89 1005.8
20260505120744 70 191 2.0 3.0 0.00 0.00 0.00 89 1005.4
20260505120241 70 188 1.0 5.0 0.00 0.00 0.00 89 1005.4
20260505115739 70 150 2.0 3.0 0.00 0.00 0.00 90 1005.5
20260505115237 70 187 3.0 5.0 0.00 0.00 0.00 90 1005.5
20260505114734 70 212 1.0 3.0 0.00 0.00 0.00 89 1005.6
20260505114230 70 162 2.0 5.0 0.00 0.00 0.00 90 1005.6
20260505113727 70 119 3.0 5.0 0.00 0.00 0.00 90 1005.3
20260505113223 70 212 1.0 6.0 0.00 0.00 0.00 90 1005.3
20260505112719 70 177 1.0 5.0 0.00 0.00 0.00 90 1005.3
20260505112217 70 136 0.0 1.0 0.00 0.00 0.00 90 1005.4
20260505111712 70 159 2.0 2.0 0.00 0.00 0.00 89 1005.3
20260505111208 70 115 2.0 3.0 0.00 0.00 0.00 89 1005.5
20260505110704 70 198 2.0 3.0 0.00 0.00 0.00 89 1005.4
20260505110202 70 196 1.0 2.0 0.00 0.00 0.00 89 1005.3
20260505102137 70 137 1.0 7.0 0.00 0.00 0.00 88 1005.0
20260505101636 71 171 2.0 7.0 0.00 0.00 0.00 88 1005.0
20260505101132 71 110 1.0 3.0 0.00 0.00 0.00 88 1005.1
20260505100628 71 78 4.0 6.0 0.00 0.00 0.00 88 1005.3
20260505100125 71 125 0.0 3.0 0.00 0.00 0.00 88 1005.4
20260505095621 71 170 3.0 5.0 0.00 0.00 0.00 88 1005.3
20260505095118 71 117 2.0 5.0 0.00 0.00 0.00 88 1005.3
20260505094614 71 203 2.0 10.0 0.00 0.00 0.00 87 1005.4
20260505094111 71 177 5.0 8.0 0.00 0.00 0.00 87 1005.4
20260505093607 71 117 3.0 3.0 0.00 0.00 0.00 87 1005.6
20260505093104 71 222 2.0 3.0 0.00 0.00 0.00 87 1005.4
20260505092601 71 216 2.0 15.0 0.00 0.00 0.00 87 1005.4
20260505092100 71 171 4.0 5.0 0.00 0.00 0.00 87 1005.4
20260505091556 71 107 1.0 6.0 0.00 0.00 0.00 86 1005.5
20260505091055 71 175 5.0 9.0 0.00 0.00 0.00 86 1005.4
20260505090552 71 71 3.0 6.0 0.00 0.00 0.00 86 1005.7
20260505090050 71 169 2.0 3.0 0.00 0.00 0.00 86 1005.7
20260505085548 71 129 1.0 5.0 0.00 0.00 0.00 86 1005.5
20260505085046 71 62 1.0 3.0 0.00 0.00 0.00 86 1005.4
20260505084543 71 133 1.0 3.0 0.00 0.00 0.00 85 1005.6
20260505084041 72 111 2.0 5.0 0.00 0.00 0.00 85 1005.6
20260505083538 72 138 2.0 10.0 0.00 0.00 0.00 85 1005.6
20260505083035 72 202 3.0 3.0 0.00 0.00 0.00 85 1005.5
20260505082530 72 164 3.0 5.0 0.00 0.00 0.00 84 1005.3
20260505082027 72 259 1.0 2.0 0.00 0.00 0.00 84 1005.6
20260505081524 72 168 1.0 5.0 0.00 0.00 0.00 84 1005.6
20260505081021 72 180 1.0 9.0 0.00 0.00 0.00 84 1005.6
20260505080517 72 193 4.0 8.0 0.00 0.00 0.00 83 1005.7
20260505080014 72 147 1.0 7.0 0.00 0.00 0.00 83 1005.9
20260505075510 72 157 3.0 3.0 0.00 0.00 0.00 83 1005.9
20260505075007 73 120 1.0 6.0 0.00 0.00 0.00 83 1005.8
20260505074504 73 124 2.0 5.0 0.00 0.00 0.00 83 1006.0
20260505074001 73 186 2.0 5.0 0.00 0.00 0.00 82 1005.9
20260505073459 73 154 2.0 5.0 0.00 0.00 0.00 82 1006.1
20260505072956 73 129 1.0 3.0 0.00 0.00 0.00 82 1006.1
20260505072452 73 172 2.0 2.0 0.00 0.00 0.00 82 1006.2
20260505071948 73 144 1.0 7.0 0.00 0.00 0.00 81 1006.2
20260505071444 73 154 4.0 6.0 0.00 0.00 0.00 81 1006.3
20260505070943 73 140 1.0 3.0 0.00 0.00 0.00 81 1006.3
20260505070439 73 146 3.0 7.0 0.00 0.00 0.00 81 1006.3
20260505065935 73 130 1.0 6.0 0.00 0.00 0.00 80 1006.5
20260505065431 73 127 1.0 3.0 0.00 0.00 0.00 80 1006.5
20260505064928 73 185 3.0 8.0 0.00 0.00 0.00 80 1006.6
20260505064425 73 191 4.0 6.0 0.00 0.00 0.00 79 1006.8
20260505063923 73 132 2.0 2.0 0.00 0.00 0.00 78 1006.8
20260505063420 73 184 1.0 6.0 0.00 0.00 0.00 78 1007.0
20260505062916 73 123 1.0 3.0 0.00 0.00 0.00 78 1006.8
20260505062414 74 213 3.0 5.0 0.00 0.00 0.00 78 1007.0
20260505061910 74 139 2.0 6.0 0.00 0.00 0.00 77 1006.9
20260505061409 74 181 1.0 10.0 0.00 0.00 0.00 76 1006.8
20260505060906 74 145 1.0 3.0 0.00 0.00 0.00 76 1006.8
20260505060402 74 175 2.0 3.0 0.00 0.00 0.00 76 1006.8
20260505055858 74 115 2.0 6.0 0.00 0.00 0.00 76 1006.8
20260505055355 74 161 1.0 2.0 0.00 0.00 0.00 75 1006.8
20260505054852 75 180 2.0 5.0 0.00 0.00 0.00 75 1006.8
20260505054349 75 138 4.0 9.0 0.00 0.00 0.00 74 1006.5
20260505053847 75 106 3.0 6.0 0.00 0.00 0.00 74 1006.8
20260505053344 75 147 1.0 5.0 0.00 0.00 0.00 74 1006.7
20260505052841 75 148 2.0 3.0 0.00 0.00 0.00 73 1006.7
20260505052337 75 111 1.0 3.0 0.00 0.00 0.00 72 1006.8
20260505051835 76 189 1.0 6.0 0.00 0.00 0.00 72 1006.8
20260505051332 76 185 3.0 5.0 0.00 0.00 0.00 71 1006.8
20260505050830 76 205 3.0 8.0 0.00 0.00 0.00 71 1006.9
20260505050328 76 128 1.0 6.0 0.00 0.00 0.00 71 1007.0
20260505041758 76 145 1.0 2.0 0.00 0.00 0.00 72 1007.1
20260505041255 76 82 1.0 2.0 0.00 0.00 0.00 72 1007.1
20260505040753 75 254 1.0 2.0 0.00 0.00 0.00 72 1007.3
20260505040250 75 207 2.0 3.0 0.00 0.00 0.00 72 1007.0
20260505035747 75 62 1.0 7.0 0.00 0.00 0.00 72 1007.1
20260505035242 75 142 2.0 3.0 0.00 0.00 0.00 72 1007.1
20260505034739 75 186 1.0 1.0 0.00 0.00 0.00 73 1007.3
20260505034236 75 148 1.0 2.0 0.00 0.00 0.00 73 1007.4
20260505033733 75 130 1.0 3.0 0.00 0.00 0.00 73 1006.9
20260505033231 75 125 1.0 2.0 0.00 0.00 0.00 72 1006.9
20260505032729 75 134 2.0 5.0 0.00 0.00 0.00 72 1007.0
20260505032224 76 104 1.0 7.0 0.00 0.00 0.00 72 1007.1
20260505031722 76 138 3.0 6.0 0.00 0.00 0.00 72 1007.1
20260505031218 76 152 1.0 5.0 0.00 0.00 0.00 72 1006.9
20260505030715 76 89 1.0 7.0 0.00 0.00 0.00 72 1007.3
20260505030211 76 127 1.0 2.0 0.00 0.00 0.00 72 1007.1
20260505025707 76 157 1.0 5.0 0.00 0.00 0.00 71 1007.2
20260505025206 76 122 3.0 7.0 0.00 0.00 0.00 71 1007.2
20260505024703 76 100 1.0 3.0 0.00 0.00 0.00 72 1007.3
20260505024200 76 74 1.0 7.0 0.00 0.00 0.00 72 1007.3
20260505023657 76 100 1.0 3.0 0.00 0.00 0.00 72 1007.0
20260505023155 76 104 2.0 3.0 0.00 0.00 0.00 72 1007.0
20260505022652 76 152 1.0 5.0 0.00 0.00 0.00 71 1007.0
20260505022149 76 79 1.0 6.0 0.00 0.00 0.00 71 1007.0
20260505021645 76 75 2.0 5.0 0.00 0.00 0.00 71 1006.9
20260505021143 76 72 2.0 7.0 0.00 0.00 0.00 71 1007.1
20260505020638 76 166 1.0 3.0 0.00 0.00 0.00 71 1006.8
20260505020134 76 141 1.0 6.0 0.00 0.00 0.00 71 1007.0
20260505015632 76 109 1.0 3.0 0.00 0.00 0.00 71 1006.7
20260505015128 76 78 2.0 3.0 0.00 0.00 0.00 71 1006.8
20260505014625 76 140 0.0 6.0 0.00 0.00 0.00 70 1006.7